Glisson Pond Weather Center

Moon Phase Calendar



Glisson Pond Water Level
Online Cameras

 


      

Current Conditions in Madison
11/23/2020 5:29:44 PM

68°F
Feels Like 63
Clear
Humidity
45%
Pressure
30.12"
Wind
6.7 mph (NNW)
Dew Point
45°F
UV Index
4/10 (Moderate)
Visibility
6 mi

Hourly Forecast

Date & Time Mon, Nov 23
5:00 PM
Mon, Nov 23
6:00 PM
Mon, Nov 23
7:00 PM
Mon, Nov 23
8:00 PM
Mon, Nov 23
9:00 PM
Mon, Nov 23
10:00 PM
Mon, Nov 23
11:00 PM
Tue, Nov 24
12:00 AM
Tue, Nov 24
1:00 AM
Tue, Nov 24
2:00 AM
Tue, Nov 24
3:00 AM
Tue, Nov 24
4:00 AM
Tue, Nov 24
5:00 AM
Tue, Nov 24
6:00 AM
Tue, Nov 24
7:00 AM
Tue, Nov 24
8:00 AM
Tue, Nov 24
9:00 AM
Tue, Nov 24
10:00 AM
Tue, Nov 24
11:00 AM
Tue, Nov 24
12:00 PM
Tue, Nov 24
1:00 PM
Tue, Nov 24
2:00 PM
Tue, Nov 24
3:00 PM
Tue, Nov 24
4:00 PM
Tue, Nov 24
5:00 PM
Tue, Nov 24
6:00 PM
Tue, Nov 24
7:00 PM
Tue, Nov 24
8:00 PM
Tue, Nov 24
9:00 PM
Tue, Nov 24
10:00 PM
Tue, Nov 24
11:00 PM
Wed, Nov 25
12:00 AM
Wed, Nov 25
1:00 AM
Wed, Nov 25
2:00 AM
Wed, Nov 25
3:00 AM
Wed, Nov 25
4:00 AM
Wed, Nov 25
5:00 AM
Wed, Nov 25
6:00 AM
Wed, Nov 25
7:00 AM
Wed, Nov 25
8:00 AM
Wed, Nov 25
9:00 AM
Wed, Nov 25
10:00 AM
Wed, Nov 25
11:00 AM
Wed, Nov 25
12:00 PM
Wed, Nov 25
1:00 PM
Wed, Nov 25
2:00 PM
Wed, Nov 25
3:00 PM
Wed, Nov 25
4:00 PM
Condition
Clear

Clear

Clear

Clear

Clear

Clear

Clear

Clear

Clear

Clear

Clear

Clear

Clear

Clear

Clear

Clear

Clear

Clear

Clear

Clear

Clear

Clear

Clear

Clear

Clear

Clear

Clear

Clouds

Clouds

Clouds

Clouds

Clouds

Clouds

Clear

Clear

Clouds

Clouds

Clouds

Clouds

Clear

Clear

Clear

Clouds

Clouds

Clouds

Clouds

Clouds

Clouds
Temperature 68°F65°F61°F59°F57°F56°F56°F55°F54°F54°F54°F53°F52°F52°F52°F54°F58°F63°F67°F70°F72°F73°F73°F72°F69°F65°F64°F64°F63°F62°F60°F59°F59°F59°F59°F59°F59°F58°F58°F59°F65°F69°F72°F74°F76°F77°F77°F77°F
Feels Like 63°F61°F57°F54°F52°F52°F51°F51°F50°F50°F49°F48°F47°F47°F47°F48°F53°F58°F63°F66°F68°F70°F70°F70°F68°F63°F62°F61°F60°F59°F58°F57°F57°F57°F57°F57°F57°F56°F56°F58°F62°F66°F70°F72°F74°F75°F76°F76°F
Cloudiness 1%1%0%0%0%0%0%0%0%0%0%0%0%0%0%0%0%0%0%0%0%0%0%0%0%1%5%49%51%47%37%29%25%1%10%16%17%14%11%9%4%9%28%41%43%38%53%38%
Visibility 6 mi6 mi6 mi6 mi6 mi6 mi6 mi6 mi6 mi6 mi6 mi6 mi6 mi6 mi6 mi6 mi6 mi6 mi6 mi6 mi6 mi6 mi6 mi6 mi6 mi6 mi6 mi6 mi6 mi6 mi6 mi6 mi6 mi6 mi6 mi6 mi6 mi6 mi6 mi6 mi6 mi6 mi6 mi6 mi6 mi6 mi6 mi6 mi
Precipitation 0%0%0%0%0%0%0%0%0%0%0%0%0%0%0%0%0%0%0%0%0%0%0%0%0%0%0%0%0%0%0%0%0%0%0%0%0%0%0%0%0%0%0%0%0%0%0%0%
Humidity 45%50%53%55%59%63%68%74%79%81%78%75%73%76%80%79%72%66%61%56%53%50%49%51%62%68%70%71%74%78%84%90%93%94%94%92%93%93%93%88%73%64%59%55%52%52%52%54%
Dew Point 45°F46°F44°F43°F43°F44°F46°F47°F48°F48°F47°F45°F44°F45°F46°F47°F49°F52°F53°F54°F54°F53°F53°F54°F55°F54°F54°F54°F55°F55°F56°F56°F57°F57°F57°F57°F57°F56°F56°F56°F56°F57°F57°F57°F58°F58°F59°F59°F
Pressure 30.12"30.12"30.15"30.15"30.18"30.18"30.21"30.21"30.21"30.21"30.21"30.21"30.21"30.24"30.24"30.27"30.27"30.27"30.27"30.27"30.21"30.21"30.18"30.18"30.18"30.21"30.21"30.24"30.24"30.24"30.24"30.21"30.21"30.21"30.21"30.21"30.21"30.21"30.21"30.24"30.24"30.24"30.24"30.21"30.18"30.15"30.12"30.12"
Wind Speed 6.7 mph5.8 mph5.7 mph5.5 mph5.6 mph5.6 mph5.9 mph5.9 mph6.1 mph6.4 mph6.9 mph6.3 mph7.4 mph7.3 mph6.9 mph7.8 mph9.1 mph8.9 mph8.7 mph8.3 mph8 mph6.9 mph6.6 mph6.5 mph4.1 mph4.2 mph4.9 mph5.9 mph7.4 mph7.6 mph6.9 mph6.3 mph7 mph7 mph7.5 mph7.8 mph7.1 mph7.6 mph7.1 mph6.3 mph9.3 mph9.2 mph8.2 mph7.4 mph7.4 mph7.7 mph7.9 mph7 mph
Wind
Direction
347°
NNW
357°
N

N
17°
NNE
17°
NNE
23°
NNE
41°
NE
51°
NE
48°
NE
58°
ENE
66°
ENE
56°
NE
71°
ENE
72°
ENE
69°
ENE
68°
ENE
76°
ENE
86°
E
96°
E
104°
ESE
107°
ESE
108°
ESE
108°
ESE
102°
ESE
87°
E
77°
ENE
86°
E
91°
E
95°
E
101°
E
103°
ESE
107°
ESE
117°
ESE
122°
ESE
121°
ESE
124°
SE
120°
ESE
120°
ESE
120°
ESE
115°
ESE
131°
SE
139°
SE
145°
SE
153°
SSE
149°
SSE
146°
SE
141°
SE
149°
SSE

Daily Forecast

Date High Low Precip. Humidity
Today
Nov 23

Clear
72 °F
58 °F
0%
54%
Tuesday
Nov 24

Clear
72 °F
52 °F
0%
53%
Wednesday
Nov 25

Clouds
77 °F
58 °F
0%
52%
Thursday
Nov 26

Clouds
80 °F
64 °F
23%
57%
Friday
Nov 27

Rain
79 °F
65 °F
47%
61%
Saturday
Nov 28

Rain
75 °F
63 °F
73%
63%
Sunday
Nov 29

Rain
73 °F
64 °F
100%
71%
Monday
Nov 30

Rain
64 °F
49 °F
58%
54%
Tuesday
Dec 1

Clouds
63 °F
42 °F
0%
53%
Wednesday
Dec 2

Clear
67 °F
47 °F
1%
60%
Thursday
Dec 3

Clouds
63 °F
47 °F
26%
47%
Friday
Dec 4

Clouds
52 °F
39 °F
0%
43%
Saturday
Dec 5

Clouds
55 °F
36 °F
0%
49%
Sunday
Dec 6

Clear
50 °F
34 °F
0%
48%
Monday
Dec 7

Clear
60 °F
36 °F
0%
38%
Tuesday
Dec 8

Clear
54 °F
38 °F
0%
41%


Temperature 8-14 Day Outlook



Precipitation 8-14 Day Outlook




Quick Links
Glisson Pond News
Glisson Pond Photos
Glisson Pond Videos




About Us
Contact Us
Site Map
Search Site
Advertise With Us
   
GlissonPond.LakesOnline.com
THE GLISSON POND WEBSITE

Copyright 2020, Lakes Online
Privacy    |    Legal